Simultaneous Nadir Overpasses (SNOs) Predictions

Prediction of SNOs between METOP-B and NOAA-19 Satellite Orbit:

Table of predicted SNOs for the next 14.0 days since TLE Epoch: 7/15/2023
Index Date (METOP-B) Time (METOP-B) Lat,Lon (METOP-B) SZA (METOP-B ) Date (NOAA-19) Time (NOAA-19) Lat,Lon (NOAA-19) SZA (NOAA-19 ) Distance(km) Time Diff (sec)
1 07/17/2023 08:02:10 -80.89, -86.97 118.89 07/17/2023 08:00:58 -80.89, -86.86 118.91 2.02 72
2 07/17/2023 08:52:51 80.88, 80.17 61.10 07/17/2023 08:52:03 80.89, 80.15 61.08 0.71 48
3 07/17/2023 09:43:32 -80.88,-112.49 118.90 07/17/2023 09:42:57 -80.89,-112.35 118.90 2.52 35
4 07/17/2023 10:34:12 80.89, 55.01 61.13 07/17/2023 10:34:01 80.89, 55.02 61.13 0.30 11
5 07/17/2023 11:24:53 -80.89,-137.64 118.87 07/17/2023 11:24:55 -80.90,-137.48 118.85 2.96 2
6 07/17/2023 12:15:33 80.90, 29.86 61.17 07/17/2023 12:15:59 80.90, 29.90 61.18 0.72 26
7 07/17/2023 13:06:14 -80.90,-162.80 118.83 07/17/2023 13:06:54 -80.90,-162.98 118.83 3.09 40
8 07/17/2023 13:56:54 80.89, 4.34 61.16 07/17/2023 13:57:57 80.90, 4.40 61.19 1.33 63
9 07/28/2023 20:14:09 80.88, -90.17 63.39 07/28/2023 20:13:10 80.88, -89.99 63.39 3.24 59
10 07/28/2023 21:04:50 -80.89, 77.23 116.59 07/28/2023 21:04:07 -80.88, 77.16 116.62 1.29 43
11 07/28/2023 21:55:30 80.89,-115.34 63.43 07/28/2023 21:55:09 80.88,-115.50 63.40 3.02 21
12 07/28/2023 22:46:12 -80.88, 51.71 116.60 07/28/2023 22:46:06 -80.88, 51.66 116.60 1.01 6
13 07/28/2023 23:36:52 80.88,-140.86 63.43 07/28/2023 23:37:08 80.88,-141.02 63.42 2.69 16
14 07/29/2023 00:27:33 -80.89, 26.54 116.56 07/29/2023 00:28:04 -80.89, 26.52 116.55 0.41 31
15 07/29/2023 01:18:13 80.89,-166.03 63.46 07/29/2023 01:19:06 80.89,-166.16 63.47 2.24 53



Historial Predications of SNOs between METOP-B and NOAA-19
